This demonstration page uses our WeatherBlox Daily Observations layout. Learn more.

39.29038, -76.61219

Hourly Observations for June 3, 2019

Temp ( °F °C ) Dew Point ( °F °C ) Humidity (%) Winds ( mph kmh ) Pressure ( in mb ) Visibility ( mi km ) Precip ( " mm )
12:54 am 00:54 undefined 69 20.6 51 10.6 53 53 undefined N/A 29.83 1010 N/A 0 0
1:54 am 01:54 undefined 67 19.4 47 8.3 49 49 undefined N/A 29.83 1010 N/A 0 0
2:54 am 02:54 undefined 65 18.3 45 7.2 49 49 undefined N/A 29.83 1010 N/A 0 0
3:54 am 03:54 undefined 64 17.8 44 6.7 48 48 undefined N/A 29.85 1011 N/A 0 0
4:54 am 04:54 undefined 63 17.2 46 7.8 54 54 undefined N/A 29.85 1011 N/A 0 0
5:54 am 05:54 undefined 62 16.7 47 8.3 58 58 undefined N/A 29.88 1012 N/A 0 0
6:54 am 06:54 undefined 63 17.2 47 8.3 56 56 undefined N/A 29.91 1013 N/A 0 0
7:54 am 07:54 undefined 66 18.9 47 8.3 50 50 undefined N/A 29.94 1014 N/A 0 0
8:54 am 08:54 undefined 68 20 47 8.3 47 47 undefined N/A 29.94 1014 N/A 0 0
9:54 am 09:54 undefined 70 21.1 44 6.7 39 39 undefined N/A 29.94 1014 N/A 0 0
10:54 am 10:54 undefined 70 21.1 42 5.6 37 37 undefined N/A 29.94 1014 N/A 0 0
11:54 am 11:54 undefined 72 22.2 44 6.7 37 37 undefined N/A 29.97 1015 N/A 0 0
12:54 pm 12:54 undefined 73 22.8 41 5 32 32 undefined N/A 29.97 1015 N/A 0 0
1:54 pm 13:54 undefined 73 22.8 35 1.7 25 25 undefined N/A 29.97 1015 N/A 0 0
2:54 pm 14:54 undefined 73 22.8 32 0 22 22 undefined N/A 29.97 1015 N/A 0 0
3:54 pm 15:54 undefined 73 22.8 35 1.7 25 25 undefined N/A 29.97 1015 N/A 0 0
4:54 pm 16:54 undefined 74 23.3 34 1.1 23 23 undefined N/A 29.97 1015 N/A 0 0
5:54 pm 17:54 undefined 72 22.2 32 0 23 23 undefined N/A 30 1016 N/A 0 0
6:54 pm 18:54 undefined 71 21.7 33 0.6 25 25 undefined N/A 30 1016 N/A 0 0
7:54 pm 19:54 undefined 70 21.1 35 1.7 28 28 undefined N/A 30.03 1017 N/A 0 0
8:54 pm 20:54 undefined 68 20 36 2.2 31 31 undefined N/A 30.03 1017 N/A 0 0
9:54 pm 21:54 undefined 67 19.4 37 2.8 33 33 undefined N/A 30.06 1018 N/A 0 0
10:54 pm 22:54 undefined 66 18.9 38 3.3 36 36 undefined N/A 30.06 1018 N/A 0 0
11:54 pm 23:54 undefined 64 17.8 38 3.3 38 38 undefined N/A 30.09 1019 N/A 0 0

Powered by AerisWeather